sat.trackr.live / text

‹ back to catalog

STARLINK-3919

NORAD 52580 · 2022-051AW

PAYLOAD ACTIVE UNKNOWN

§ Identity

Operator
Country
US
Launch date
2022-05-13
Launch site
AFWTR
Launch vehicle
Mass (kg)
RCS (m²)

Purposes: comms

External: N2YO · Heavens-Above · Gunter

§ Orbital elements

Epoch: 2026-05-25T00:51:25.068384Z

Period
95.44 min
Inclination
53.2149°
Eccentricity
0.0001102
Mean motion
15.08834214 rev/d
Perigee alt
539.0 km
Apogee alt
540.5 km
Semi-major
6,917.9 km
B*
1.3305e-5
RAAN
151.3990°
Arg perigee
73.6153°
Mean anomaly
286.4960°
Rev number
22,290

§ Raw data

STARLINK-39191 52580U 22051AW  26145.03570681 -.00000076  00000+0  13305-4 0  99972 52580  53.2149 151.3990 0001102  73.6153 286.4960 15.08834214222909

JSON: /api/v1/satellites/52580 · /tle

For live sub-satellite position, see the globe view (requires WebGL).

§ Visibility from observer

Set your observer location to see the next 7 days of passes ≥ 10°. The values pass through the URL so the page stays shareable.

No JS? Fill the form by hand. The geolocation button needs JavaScript.